Naples, FL

11:07 AM EDT on May 25, 2017 (GMT -0400)
Naples Municipal

Weather History for KAPF - February, 2013

Change the Weather History Date:

Friday, February 22, 2013

  Actual Average Record
Temperature  
Mean Temperature 74 °F 68 °F  
Max Temperature 84 °F 78 °F 86 °F (1979)
Min Temperature 64 °F 58 °F 34 °F (1977)
Degree Days  
Heating Degree Days 0 1  
Month to date heating degree days 36 43  
Since 1 July heating degree days 94 223  
Cooling Degree Days 9 4  
Month to date cooling degree days 87 78  
Year to date cooling degree days 280 164  
Growing Degree Days 24 (Base 50)    
Moisture  
Dew Point 66 °F    
Average Humidity 76    
Maximum Humidity 100    
Minimum Humidity 51    
Precipitation  
Precipitation 0.00 in 0.07 in 2.23 in (1967)
Month to date precipitation 1.60 1.65  
Year to date precipitation 1.75 3.50  
Snow  
Snow 0.00 in - - ()
Month to date snowfall 0.0  
Since 1 July snowfall 0.0  
Snow Depth 0.00 in    
Sea Level Pressure  
Sea Level Pressure 30.04 in    
Wind  
Wind Speed 8 mph (SE)    
Max Wind Speed 20 mph    
Max Gust Speed 25 mph    
Visibility 9 miles    
Events      
T = Trace of Precipitation, MM = Missing Value Source: NWS Daily Summary

Daily Weather History Graph

Daily Weather History Graph

Search for Another Location

Airport or City:

Trip Planner

Search our weather history database for the weather conditions in past years. The results will help you decide how hot, cold, wet, or windy it might be!

Date:

Astronomy

Feb. 22, 2013 Rise Set
Actual Time 6:56 AM EST 6:24 PM EST
Civil Twilight 6:33 AM EST 6:48 PM EST
Nautical Twilight 6:06 AM EST 7:15 PM EST
Astronomical Twilight 5:39 AM EST 7:41 PM EST
Moon 3:45 PM EST (2/22) 4:29 AM EST (2/22)
Length of Visible Light 12h 14m
Length of Day
11h 27m
Waxing Gibbous, 90% of the Moon is Illuminated
Feb 22
Waxing Gibbous
Feb 25
Full
Mar 4
Last Quarter
Mar 11
New
Mar 19
First Quarter

Hourly Weather History & Observations

Time (EST) Temp. Heat Index Dew Point Humidity Pressure Visibility Wind Dir Wind Speed Gust Speed Precip Events Conditions
12:53 AM 66.0 °F - 63.0 °F 90% 30.03 in 10.0 mi SE 5.8 mph - N/A   Clear
1:53 AM 66.9 °F - 64.0 °F 90% 30.02 in 10.0 mi SE 6.9 mph - N/A   Clear
3:53 AM 64.9 °F - 64.0 °F 97% 30.01 in 8.0 mi ESE 4.6 mph - N/A   Clear
4:53 AM 64.9 °F - 64.0 °F 97% 30.02 in 7.0 mi Calm Calm - N/A   Mostly Cloudy
5:05 AM 64.4 °F - 62.6 °F 94% 30.03 in 7.0 mi Calm Calm - N/A   Scattered Clouds
5:53 AM 64.9 °F - 64.0 °F 97% 30.03 in 7.0 mi ESE 4.6 mph - N/A   Clear
6:53 AM 66.0 °F - 64.9 °F 96% 30.05 in 3.0 mi East 4.6 mph - N/A   Partly Cloudy
7:48 AM 66.2 °F - 66.2 °F 100% 30.07 in 6.0 mi East 6.9 mph - N/A   Mostly Cloudy
7:53 AM 68.0 °F - 66.0 °F 93% 30.07 in 4.0 mi East 6.9 mph - N/A   Mostly Cloudy
8:03 AM 68.0 °F - 66.2 °F 94% 30.08 in 6.0 mi ESE 6.9 mph - N/A   Scattered Clouds
8:53 AM 73.0 °F - 69.1 °F 87% 30.08 in 9.0 mi SE 9.2 mph - N/A   Partly Cloudy
9:37 AM 75.2 °F - 69.8 °F 83% 30.09 in 10.0 mi SE 11.5 mph 20.7 mph N/A   Mostly Cloudy
9:53 AM 77.0 °F - 69.1 °F 76% 30.09 in 10.0 mi SE 11.5 mph - N/A   Mostly Cloudy
10:53 AM 80.1 °F 82.7 °F 68.0 °F 67% 30.08 in 10.0 mi SE 15.0 mph 23.0 mph N/A   Mostly Cloudy
11:00 AM 80.6 °F 83.2 °F 68.0 °F 65% 30.08 in 10.0 mi SSE 15.0 mph 20.7 mph N/A   Mostly Cloudy
11:53 AM 81.0 °F 83.0 °F 66.0 °F 60% 30.06 in 10.0 mi SE 16.1 mph - N/A   Mostly Cloudy
12:00 PM 82.4 °F 84.6 °F 66.2 °F 58% 30.06 in 10.0 mi SE 16.1 mph - N/A   Mostly Cloudy
12:53 PM 82.9 °F 84.0 °F 63.0 °F 51% 30.04 in 10.0 mi SSE 18.4 mph 25.3 mph N/A   Scattered Clouds
1:53 PM 84.0 °F 85.4 °F 64.0 °F 51% 30.02 in 10.0 mi South 16.1 mph - N/A   Scattered Clouds
2:53 PM 82.9 °F 85.4 °F 66.9 °F 58% 30.01 in 10.0 mi South 16.1 mph - N/A   Partly Cloudy
3:53 PM 81.0 °F 83.3 °F 66.9 °F 62% 30.00 in 10.0 mi SSW 12.7 mph - N/A   Scattered Clouds
4:53 PM 80.1 °F 82.3 °F 66.9 °F 64% 30.00 in 10.0 mi South 12.7 mph - N/A   Clear
5:53 PM 78.1 °F - 66.9 °F 68% 30.01 in 10.0 mi South 8.1 mph - N/A   Clear
6:53 PM 75.0 °F - 66.9 °F 76% 30.02 in 10.0 mi South 6.9 mph - N/A   Clear
7:53 PM 73.9 °F - 68.0 °F 82% 30.04 in 10.0 mi SSE 5.8 mph - N/A   Clear
8:53 PM 73.0 °F - 68.0 °F 84% 30.05 in 10.0 mi SE 3.5 mph - N/A   Clear
9:53 PM 71.1 °F - 66.9 °F 87% 30.06 in 10.0 mi Calm Calm - N/A   Clear
10:53 PM 70.0 °F - 66.9 °F 90% 30.05 in 10.0 mi SE 5.8 mph - N/A   Clear
11:53 PM 69.1 °F - 66.9 °F 93% 30.04 in 10.0 mi ESE 4.6 mph - N/A   Scattered Clouds